East Milton, MA

1:28 AM EDT on October 21, 2017 (GMT -0400)
East Milton

Weather History for KMQE - March, 2013

Change the Weather History Date:

Thursday, March 7, 2013

  Actual Average (KOWD) Record (KOWD)
Temperature  
Mean Temperature 31 °F -  
Max Temperature 34 °F 40 °F 63 °F (2012)
Min Temperature 28 °F 23 °F -5 °F (2003)
Degree Days  
Heating Degree Days 34    
Moisture  
Dew Point 29 °F    
Average Humidity 92    
Maximum Humidity 96    
Minimum Humidity 79    
Precipitation  
Precipitation 1.45 in - - ()
Sea Level Pressure  
Sea Level Pressure 30.00 in    
Wind  
Wind Speed 22 mph (NNE)    
Max Wind Speed 30 mph    
Max Gust Speed 45 mph    
Averages and records for this station are not official NWS values.
T = Trace of Precipitation, MM = Missing Value Source: NWS Daily Summary

Daily Weather History Graph

Daily Weather History Graph

Search for Another Location

Airport or City:

Trip Planner

Search our weather history database for the weather conditions in past years. The results will help you decide how hot, cold, wet, or windy it might be!

Date:

Astronomy

Mar. 07, 2013 Rise Set
Actual Time 6:09 AM EST 5:41 PM EST
Civil Twilight 5:41 AM EST 6:09 PM EST
Nautical Twilight 5:09 AM EST 6:42 PM EST
Astronomical Twilight 4:36 AM EST 7:15 PM EST
Moon 3:10 AM EST (3/7) 1:22 PM EST (3/7)
Length of Visible Light 12h 28m
Length of Day
11h 32m
Waning Crescent, 20% of the Moon is Illuminated
Mar 7
Waning Crescent
Mar 11
New
Mar 19
First Quarter
Mar 27
Full
Apr 3
Last Quarter

Hourly Weather History & Observations

Time (EST) Temp. Windchill Dew Point Humidity Pressure Visibility Wind Dir Wind Speed Gust Speed Precip Events Conditions
12:54 AM 34.0 °F 21.3 °F 28.0 °F 79% 30.03 in - NE 25.3 mph 38.0 mph N/A   Unknown
1:54 AM 34.0 °F 21.8 °F 28.0 °F 79% 30.00 in - NNE 23.0 mph 44.9 mph N/A   Unknown
2:54 AM 32.0 °F 19.2 °F 28.9 °F 88% 29.99 in - NNE 23.0 mph 41.4 mph 0.03 in   Unknown
3:54 AM 30.9 °F 17.2 °F 30.0 °F 96% 29.99 in - NNE 25.3 mph 42.6 mph 0.07 in   Unknown
4:54 AM 30.9 °F 18.1 °F 28.9 °F 92% 29.98 in - North 21.9 mph 34.5 mph 0.07 in   Unknown
5:54 AM 30.9 °F 18.1 °F 28.9 °F 92% 30.00 in - North 21.9 mph 35.7 mph 0.04 in   Unknown
6:54 AM 30.0 °F 17.9 °F 28.9 °F 96% 30.01 in - North 18.4 mph 35.7 mph 0.13 in   Unknown
7:54 AM 30.0 °F 17.2 °F 28.9 °F 96% 30.01 in - North 20.7 mph 36.8 mph 0.13 in   Unknown
8:54 AM 30.9 °F 18.4 °F 30.0 °F 96% 30.01 in - North 20.7 mph 35.7 mph 0.07 in   Unknown
9:54 AM 30.9 °F 18.1 °F 30.0 °F 96% 29.99 in - NNE 21.9 mph 42.6 mph 0.06 in   Unknown
10:54 AM 30.9 °F 17.5 °F 30.0 °F 96% 30.00 in - NNE 24.2 mph 40.3 mph 0.06 in   Unknown
11:54 AM 32.0 °F 17.6 °F 30.0 °F 92% 30.00 in - NNE 29.9 mph 43.7 mph 0.07 in   Unknown
12:54 PM 32.0 °F 19.8 °F 30.0 °F 92% 30.00 in - NNE 20.7 mph 39.1 mph 0.05 in   Unknown
1:54 PM 30.9 °F 18.7 °F 30.0 °F 96% 30.00 in - NNE 19.6 mph 34.5 mph 0.05 in   Unknown
2:54 PM 30.9 °F 18.4 °F 28.9 °F 92% 30.01 in - NNE 20.7 mph 38.0 mph 0.09 in   Unknown
3:54 PM 30.0 °F 16.6 °F 28.0 °F 92% 30.00 in - NNE 23.0 mph 42.6 mph 0.07 in   Unknown
4:54 PM 30.0 °F 17.2 °F 28.0 °F 92% 30.01 in - North 20.7 mph 34.5 mph 0.09 in   Unknown
5:54 PM 28.9 °F 16.5 °F 27.0 °F 92% 30.01 in - North 18.4 mph 32.2 mph 0.02 in   Unknown
6:54 PM 28.9 °F 15.8 °F 27.0 °F 92% 30.01 in - North 20.7 mph 31.1 mph 0.04 in   Unknown
7:54 PM 28.9 °F 16.1 °F 27.0 °F 92% 30.01 in - North 19.6 mph 28.8 mph 0.05 in   Unknown
8:54 PM 28.9 °F 17.3 °F 27.0 °F 92% 30.00 in - North 16.1 mph 26.5 mph 0.06 in   Unknown
9:54 PM 28.9 °F 17.3 °F 28.0 °F 96% 29.99 in - North 16.1 mph 24.2 mph 0.05 in   Unknown
10:54 PM 28.9 °F 16.9 °F 28.0 °F 96% 29.98 in - North 17.3 mph 26.5 mph 0.08 in   Unknown
11:54 PM 28.9 °F 17.3 °F 28.0 °F 96% 29.97 in - North 16.1 mph 24.2 mph 0.07 in   Unknown